Theta_e
301 301 300 300 300 301 301 303 304 304 304 304 304 304 305 305 305 304 301 301 303 304 302 301 302 302 302 302 304 302 302 303 307 310 311 313 318 318 320 321 321 319 322 322 324 328 333 324 327 336 330 328 334 334
301 301 301 302 302 301 301 303 303 303 303 304 304 304 304 305 306 305 302 302 302 303 302 303 303 303 303 303 300 299 301 300 303 306 306 308 314 316 317 328 316 321 314 314 324 330 323 320 320 319 317 328 331 335
302 303 304 304 304 304 304 304 304 304 304 303 304 304 304 305 306 305 303 302 302 300 301 299 301 303 303 303 303 301 298 299 301 302 303 305 311 310 316 319 314 313 310 316 323 322 314 317 316 314 314 318 325 331
305 306 307 306 305 305 305 305 305 305 304 304 304 304 304 305 305 306 305 303 303 301 304 299 301 302 303 303 303 303 302 299 298 298 301 304 308 307 312 310 310 310 311 314 320 314 313 317 313 313 314 315 318 329
308 308 306 304 305 305 304 304 305 305 304 304 304 304 304 305 305 305 305 305 303 303 303 301 301 303 303 303 301 301 301 298 297 299 300 303 302 305 304 306 307 308 313 313 315 311 311 311 311 311 314 315 317 328
307 306 305 305 305 305 305 305 305 305 304 304 304 304 304 305 306 306 303 304 303 302 304 307 301 301 303 303 301 300 298 296 297 298 298 298 300 303 304 305 307 307 305 307 307 308 308 309 310 312 312 315 319 328
306 305 305 305 305 305 305 305 305 305 304 304 304 305 305 305 306 303 303 304 304 303 305 306 303 301 302 303 299 300 300 299 299 298 299 300 301 300 300 304 304 305 304 305 306 307 308 309 309 310 313 315 320 327
307 305 305 305 306 306 305 305 305 304 305 305 305 306 306 306 307 306 305 304 303 303 303 304 305 304 307 310 307 299 302 298 300 300 299 301 300 300 303 303 303 304 304 304 305 306 307 307 308 309 310 315 322 328
308 308 308 307 307 307 307 307 306 306 306 305 305 306 306 306 305 305 305 305 304 302 305 304 306 306 306 309 310 308 304 305 301 302 301 301 302 304 304 303 303 304 304 304 305 306 307 307 307 308 312 319 323 327
311 309 309 309 308 309 309 308 307 306 306 306 306 306 307 305 305 304 303 303 302 302 302 303 305 306 303 307 311 311 310 309 309 306 302 302 306 305 304 302 301 302 304 305 305 304 304 305 306 307 313 317 318 326
311 311 310 310 310 310 311 309 307 306 308 308 308 308 307 306 306 304 304 304 302 303 301 302 303 305 302 305 308 308 311 312 314 312 309 307 306 306 306 306 305 304 302 302 303 303 303 304 305 306 309 311 313 321
312 312 311 311 312 312 312 309 308 308 308 307 307 307 306 306 306 306 305 302 302 306 303 303 305 304 305 307 309 310 312 311 315 311 315 316 311 307 309 310 309 308 306 304 304 305 305 306 306 305 306 309 312 321
313 312 312 313 314 314 313 310 308 309 309 308 308 310 310 310 316 317 318 313 307 304 303 304 308 307 306 306 309 310 311 314 307 313 315 315 314 314 313 312 311 308 309 311 312 309 306 306 306 307 308 312 322 324
314 313 313 315 316 315 312 311 310 311 311 313 317 319 321 322 320 321 321 321 318 308 304 306 309 309 309 308 308 308 308 305 311 314 314 312 311 312 315 314 311 309 309 309 311 312 313 307 307 313 319 323 327 329
314 313 316 317 318 315 313 312 312 313 314 318 319 320 321 320 319 319 318 317 313 307 307 309 310 309 308 307 304 306 310 313 312 313 309 314 316 318 317 309 310 308 307 309 310 308 306 307 309 313 327 329 331 331
314 315 316 318 317 314 315 315 314 315 317 316 316 318 316 316 318 318 318 318 306 306 308 310 313 314 315 312 313 312 313 315 314 317 318 316 315 317 319 319 314 309 308 310 311 307 307 311 318 327 327 327 329 331
315 317 316 314 314 315 316 316 318 318 318 318 317 314 314 314 314 313 313 314 312 311 317 319 323 324 319 321 322 318 322 317 320 320 318 319 317 316 317 319 319 319 320 321 320 321 324 324 324 325 326 326 326 328
315 314 314 314 316 315 319 317 318 318 321 317 317 316 314 313 312 312 311 312 311 312 313 318 319 321 322 322 321 320 319 318 319 319 318 317 316 317 317 317 318 319 318 319 319 320 322 322 321 323 323 324 324 325
317 317 317 318 317 316 317 319 317 319 318 319 317 313 312 311 310 309 309 310 309 309 310 313 317 318 317 314 317 318 317 317 315 315 316 312 310 309 313 315 316 317 317 317 317 318 318 319 320 320 320 321 322 322
321 320 320 319 317 317 321 317 318 315 320 316 317 316 313 313 310 307 309 308 307 308 310 312 314 313 314 310 308 312 312 312 314 310 308 307 307 307 306 306 307 308 308 311 312 310 312 315 318 318 318 318 318 320
322 320 319 320 320 317 317 315 314 312 314 317 318 318 316 312 311 309 309 306 308 309 309 310 311 310 306 305 305 305 306 305 307 307 307 302 302 303 304 304 304 303 302 302 303 305 305 307 310 317 318 317 318 318
320 320 321 322 321 319 316 314 313 312 318 320 320 316 315 318 316 315 311 310 309 309 307 306 305 305 304 304 304 304 303 305 304 302 301 301 300 300 300 301 302 302 302 301 301 301 301 302 307 317 317 317 317 316
321 321 323 322 321 312 317 316 316 313 317 317 319 317 317 316 316 315 312 309 308 308 308 308 308 305 303 303 302 301 302 303 302 302 300 299 299 298 299 299 299 298 299 299 300 301 300 301 303 308 316 317 316 316
322 321 322 318 317 315 319 318 313 313 313 316 320 321 317 317 315 315 313 309 307 308 308 308 308 308 303 301 299 299 299 299 298 298 298 298 297 297 298 298 297 298 298 299 298 299 299 300 303 308 312 310 312 313
314 314 314 309 315 317 319 318 318 315 317 318 320 321 317 315 314 312 311 310 307 307 306 307 307 306 300 297 297 298 298 297 296 296 296 296 296 296 296 297 297 297 298 297 297 298 299 299 301 305 308 307 306 304
316 318 314 319 317 318 318 315 313 313 315 317 315 312 308 310 310 309 306 305 304 305 305 305 306 305 298 297 295 295 297 296 295 295 295 295 295 294 294 294 294 295 296 297 297 297 298 299 298 298 298 300 300 298
317 321 316 314 317 317 317 315 311 314 317 316 310 310 308 309 309 305 302 303 303 306 308 309 307 304 297 297 297 297 296 296 296 295 294 294 294 294 294 293 293 294 297 297 297 298 298 298 297 297 296 297 297 297
318 319 321 317 319 315 317 315 314 315 313 307 306 309 310 309 305 304 303 307 308 309 305 301 301 299 298 297 297 297 296 295 295 294 293 293 293 293 293 294 294 296 296 296 297 297 297 297 296 296 295 295 295 296
320 318 318 317 317 316 316 315 313 310 308 306 308 308 307 305 306 306 308 309 306 303 299 299 299 298 298 297 296 295 294 294 293 291 291 290 291 292 292 294 294 295 295 296 296 296 296 296 296 295 295 294 294 295
318 315 320 320 317 319 316 310 309 307 305 306 305 305 306 307 309 310 310 307 301 300 299 299 298 298 297 296 295 294 294 293 293 292 290 290 291 292 293 294 294 294 294 295 295 295 295 294 294 294 294 294 294 294
316 316 319 319 319 316 311 308 308 309 309 310 309 309 310 309 311 304 302 302 301 300 299 298 298 297 297 296 295 294 293 293 293 293 293 293 292 292 293 294 294 294 295 295 294 294 294 294 294 294 294 294 294 294
318 319 320 321 318 313 310 311 312 312 312 312 315 310 308 309 310 306 303 301 301 300 299 298 298 297 297 297 297 296 295 294 293 294 293 293 293 292 292 293 294 294 294 294 294 294 294 294 294 293 294 293 293 293
318 314 318 318 317 316 315 315 315 314 315 316 314 311 310 310 311 306 302 301 302 301 300 299 298 297 297 297 296 295 294 294 294 294 293 293 293 293 293 293 292 292 293 293 293 293 293 293 293 293 292 292 292 292
Wind_Speed
31 31 30 30 29 29 28 26 25 24 23 21 20 20 19 17 9 8 7 10 8 3 7 10 12 8 3 2 2 5 7 5 4 6 4 3 3 3 3 3 4 2 2 2 3 4 3 22 5 7 6 8 9 9
32 32 31 30 29 28 27 26 25 24 23 22 21 21 19 18 11 10 5 6 3 5 6 22 22 19 16 18 3 2 3 2 2 3 2 2 3 3 4 1 5 3 4 3 1 4 4 4 6 4 6 8 10 9
33 32 31 29 29 27 26 25 24 23 23 22 20 20 18 18 13 10 10 7 3 2 6 3 10 16 19 26 25 3 3 4 1 3 2 1 2 2 3 3 4 5 4 2 3 2 12 5 6 12 13 12 15 12
35 33 31 30 29 28 26 25 24 22 22 20 19 18 17 16 12 10 13 7 4 1 3 6 5 12 8 10 18 24 15 1 1 3 1 0 1 1 2 3 1 2 5 3 3 6 11 5 15 15 18 18 17 18
36 32 29 29 28 26 24 24 24 23 22 19 18 17 16 14 11 9 12 16 14 4 3 5 17 11 6 8 13 21 17 3 2 1 2 2 2 1 2 2 2 3 2 2 1 4 4 9 13 14 14 17 18 16
33 28 27 27 26 25 23 23 22 21 19 18 16 16 15 13 10 5 1 2 8 13 2 3 5 6 12 6 11 7 7 4 3 4 3 3 4 3 2 3 5 3 1 4 1 5 8 11 11 5 11 16 16 15
30 27 26 26 24 24 23 22 22 20 19 16 14 16 14 11 7 4 3 7 9 12 2 3 4 4 7 2 1 1 3 3 4 3 3 4 3 5 2 6 9 13 14 17 12 9 14 4 7 13 11 16 15 11
30 26 25 23 23 22 21 19 18 18 17 15 13 10 6 2 4 6 10 11 8 3 1 2 4 4 5 4 4 1 2 1 1 4 1 3 1 2 5 10 16 19 16 16 16 11 13 14 9 10 7 13 12 11
30 26 24 22 20 18 18 18 19 18 16 12 4 2 2 2 1 1 3 7 11 2 1 2 2 3 5 1 2 2 2 0 1 4 4 5 4 6 11 12 13 9 7 8 8 8 7 6 9 10 7 9 9 10
29 25 23 19 16 16 18 20 21 18 13 4 2 1 1 1 5 8 3 1 2 1 2 2 2 3 3 3 2 3 2 2 2 4 2 4 13 20 18 12 8 9 14 14 13 12 13 11 8 7 8 6 10 12
28 25 20 18 15 16 17 19 19 13 4 2 1 1 3 7 1 2 1 1 1 2 2 2 3 2 3 2 2 3 2 2 2 2 2 3 4 8 15 19 20 19 14 13 13 13 10 8 9 8 7 7 12 15
29 24 19 16 15 15 17 17 14 7 2 2 2 0 3 1 1 1 1 1 2 2 2 2 2 3 2 2 2 1 2 1 4 4 3 3 3 4 5 6 7 4 7 15 16 18 18 17 13 7 7 9 15 22
30 25 18 14 13 14 19 16 9 5 2 1 1 1 1 0 2 4 5 2 3 3 3 3 2 2 1 0 2 2 2 3 4 2 3 4 7 11 14 17 19 9 9 8 7 10 20 18 22 13 10 19 22 20
30 24 16 9 10 19 22 16 5 2 1 2 3 7 4 5 3 2 5 5 2 2 4 2 1 2 2 1 2 2 1 2 2 2 4 7 20 21 16 15 18 13 10 10 11 12 17 17 13 17 18 23 20 14
28 21 6 4 15 22 21 6 2 2 2 3 3 5 3 3 4 5 5 3 1 3 3 2 1 1 2 1 1 2 3 3 1 3 3 10 16 15 11 7 6 8 7 10 11 10 11 10 10 9 13 18 14 11
25 8 1 11 20 20 14 2 2 1 2 2 4 4 4 3 7 8 9 7 3 3 1 1 1 2 2 1 2 4 5 4 3 4 6 8 18 15 15 13 2 7 8 12 8 8 9 8 8 8 6 6 8 11
14 3 11 19 17 15 1 2 1 2 2 3 2 2 3 3 4 4 3 5 1 0 3 2 5 5 3 4 2 1 8 3 10 9 7 8 17 17 17 13 14 15 12 10 6 11 9 14 13 11 8 9 10 15
5 15 14 11 13 4 1 1 1 2 3 0 2 4 3 1 3 4 5 6 5 4 3 2 2 7 5 7 5 5 4 6 7 8 11 14 16 13 13 18 17 19 17 18 19 19 15 10 8 8 19 17 15 12
19 10 5 9 11 4 2 2 3 2 2 1 2 2 1 2 2 3 4 9 7 4 3 3 5 4 4 3 5 7 6 6 3 5 9 16 22 19 19 22 23 23 23 22 21 13 15 20 18 18 15 18 14 18
7 3 11 10 5 2 2 3 1 3 1 3 2 1 3 1 4 3 7 5 4 3 6 5 4 3 2 3 3 4 6 5 3 6 5 8 16 24 22 20 16 21 24 27 25 28 22 16 14 17 16 20 17 12
2 7 7 5 2 2 2 2 4 2 2 3 3 4 3 3 4 5 5 5 5 4 4 3 6 4 8 14 19 15 14 10 5 4 3 5 13 17 20 24 25 26 21 17 9 17 25 17 16 19 12 12 9 6
5 8 3 2 2 2 2 1 3 1 2 1 4 3 2 3 4 4 3 5 3 2 3 3 6 4 8 12 14 18 18 18 19 17 19 19 10 9 11 18 18 12 18 19 19 16 19 24 25 19 19 19 19 17
6 4 3 3 1 3 2 1 3 2 1 1 2 3 1 0 2 4 3 3 2 4 7 10 14 12 8 16 21 23 24 19 13 15 16 15 16 18 18 20 19 15 13 17 21 21 22 26 22 17 15 15 19 20
3 3 3 3 3 3 2 3 2 2 2 2 1 3 2 2 3 3 3 3 4 10 9 15 15 7 12 16 8 13 20 18 18 21 22 17 13 17 20 21 23 24 21 25 23 22 24 22 24 19 20 20 18 20
3 7 4 5 3 4 4 3 2 3 3 3 2 3 3 2 3 2 1 3 3 4 4 11 13 10 4 4 9 16 21 18 15 11 21 22 18 19 21 21 21 25 25 25 22 22 23 23 21 21 22 22 20 21
4 3 3 1 3 2 3 4 4 3 2 3 3 2 2 3 2 1 2 3 2 3 4 4 4 3 4 7 3 11 13 16 20 17 20 22 22 17 11 7 9 19 27 23 24 22 20 21 23 25 26 26 25 24
1 3 1 2 1 1 3 2 1 4 3 2 1 2 2 3 0 3 3 4 3 5 13 14 4 4 6 10 15 17 18 17 14 14 17 21 23 23 20 15 13 20 21 18 16 15 18 20 21 22 23 25 23 21
2 2 2 1 1 1 2 2 2 1 2 2 3 2 3 4 4 3 4 5 9 11 7 11 11 14 15 14 12 13 16 17 22 17 9 22 22 24 24 22 22 19 20 23 21 20 21 22 22 23 24 23 22 21
2 2 3 2 1 1 1 1 2 2 3 3 4 3 3 2 2 3 3 11 11 16 16 17 14 16 15 13 14 14 15 17 18 9 9 6 10 20 26 23 20 20 21 19 19 20 20 19 21 22 21 20 18 19
3 4 3 2 2 2 2 3 3 1 2 3 4 2 2 2 2 5 7 2 12 9 10 12 13 12 10 9 10 10 11 12 14 13 4 4 9 18 21 22 21 20 19 18 18 18 18 19 19 17 17 18 18 17
3 3 2 2 2 1 2 3 5 5 3 3 3 3 2 1 3 7 15 12 13 14 14 13 10 9 9 8 7 6 4 6 9 12 13 13 13 17 19 17 18 18 19 19 18 18 18 19 19 19 17 16 17 17
4 6 5 4 2 2 3 2 2 2 1 2 1 2 1 1 1 2 8 9 12 13 12 12 10 6 4 3 2 3 8 9 9 10 9 11 12 14 16 15 14 16 16 17 18 17 17 18 18 18 17 16 16 16
1 3 3 4 3 4 4 4 3 2 2 2 3 4 3 4 3 3 4 4 5 10 13 10 10 10 8 6 3 7 7 5 5 7 8 6 8 11 13 13 14 13 15 16 17 17 18 17 18 19 20 20 20 19
Wind_Direction
322 321 319 316 313 312 312 309 308 308 307 307 309 308 310 308 294 256 265 252 203 237 278 269 262 261 285 219 275 302 342 354 342 28 19 338 352 4 328 10 351 51 25 353 313 82 70 345 31 65 299 299 319 330
325 323 319 317 314 314 312 308 307 306 304 304 302 303 304 304 295 236 253 182 228 220 262 292 279 239 247 246 211 272 230 262 256 27 350 343 341 343 338 2 351 32 114 231 27 135 197 354 78 338 320 293 336 320
328 324 321 318 314 312 310 308 306 305 303 302 304 305 304 304 301 235 248 266 253 272 281 271 249 273 258 245 226 181 276 233 268 176 207 275 346 354 6 2 311 356 43 34 40 333 338 244 5 360 349 337 325 331
330 327 324 319 315 312 311 307 304 302 303 306 308 306 306 303 295 248 226 233 190 241 276 280 290 277 272 240 210 217 232 128 55 60 47 313 295 337 283 276 268 253 342 328 347 332 343 309 348 342 334 341 338 338
332 330 325 321 320 320 317 313 310 308 309 312 310 310 304 302 296 281 260 246 241 218 273 280 294 282 304 271 216 220 218 163 133 82 107 249 266 342 313 327 255 214 219 80 225 263 216 286 312 322 336 337 331 336
335 332 330 326 327 325 323 319 317 315 313 314 314 305 295 296 298 250 287 331 213 203 267 292 291 292 308 296 210 188 191 165 161 159 202 234 255 114 278 268 266 243 125 143 270 287 270 273 286 317 331 322 323 325
339 337 332 329 331 326 327 325 323 320 319 322 317 309 306 292 259 169 195 143 131 170 254 289 286 274 301 352 14 165 139 183 151 172 202 198 228 143 172 246 260 286 297 298 298 310 301 265 305 323 317 315 314 318
340 339 335 333 333 333 333 334 331 330 331 331 329 330 333 252 191 205 208 167 150 139 238 275 275 320 344 358 339 27 174 85 255 192 94 183 49 157 243 228 239 252 254 262 270 262 252 283 304 307 315 318 322 337
342 342 338 337 338 341 340 340 335 337 335 333 341 40 49 60 131 309 161 189 190 135 242 233 260 273 348 260 263 328 78 184 236 198 208 151 202 220 228 209 220 231 201 236 246 266 263 256 288 304 307 313 320 318
342 340 340 341 344 341 338 338 334 335 341 15 88 74 52 327 130 109 68 63 30 87 226 256 293 279 358 350 9 358 316 261 305 247 110 207 243 246 245 228 205 208 217 226 249 257 267 272 255 280 290 302 304 298
341 339 337 334 338 335 339 338 335 345 22 39 60 68 123 138 160 47 88 250 184 249 214 249 244 261 307 270 280 168 296 301 262 300 215 254 272 242 244 243 240 232 208 210 220 233 231 243 266 272 281 289 299 294
340 339 335 326 332 337 334 336 341 356 16 332 291 79 159 235 58 294 310 263 228 270 201 207 247 210 249 291 265 252 266 214 252 333 251 255 262 279 294 291 296 303 247 223 220 234 246 244 236 237 254 271 279 276
340 343 335 324 333 340 337 337 339 1 22 99 160 184 164 311 336 20 332 305 282 192 208 208 215 243 212 277 276 291 275 255 333 252 262 261 286 278 271 266 264 240 232 225 229 234 243 245 248 232 250 260 261 267
338 341 334 324 340 344 339 337 349 22 94 52 2 9 23 7 339 319 307 302 326 139 162 189 215 225 171 152 345 265 292 284 278 268 266 290 301 298 289 266 231 219 219 229 230 247 236 225 229 235 241 247 253 257
339 341 337 337 342 338 337 337 72 73 31 48 23 22 352 306 275 263 265 291 88 120 139 170 249 46 35 35 336 294 292 272 302 279 266 311 336 345 5 24 150 188 217 244 243 230 207 197 206 242 260 255 241 239
341 351 10 337 333 337 335 48 68 30 70 64 46 359 309 349 348 6 2 359 160 155 129 191 198 238 83 127 334 347 336 331 274 321 308 341 346 2 15 29 152 213 230 245 233 194 189 181 192 186 187 146 147 169
342 2 325 325 333 341 45 2 18 44 87 54 320 228 228 261 259 288 319 320 29 74 1 13 18 30 306 358 342 333 11 4 18 16 341 22 18 15 18 25 33 31 37 43 74 140 123 110 133 115 78 44 85 102
309 318 325 319 341 353 57 226 327 67 29 323 48 306 330 248 310 340 333 349 18 7 20 33 336 24 20 21 22 353 9 27 23 20 12 13 16 16 16 23 26 29 38 37 45 51 59 89 92 72 64 48 37 52
328 350 18 343 348 340 346 233 167 180 224 175 307 325 40 309 297 293 357 0 356 12 51 33 55 12 346 333 335 346 340 345 332 350 17 15 18 22 15 19 28 36 38 28 27 24 39 54 56 58 60 62 58 23
341 17 344 338 333 2 349 332 353 112 165 253 99 16 91 21 309 348 24 3 9 25 25 34 17 319 293 290 282 321 356 330 12 34 4 3 20 27 17 22 20 30 30 25 27 28 21 26 40 56 52 65 59 53
354 349 349 15 36 52 82 359 34 76 330 43 338 1 37 11 23 12 18 354 33 30 14 344 328 315 345 33 26 22 22 20 37 44 345 10 4 32 38 26 26 30 29 27 31 17 13 6 5 42 46 38 63 55
342 344 328 347 32 38 57 56 136 309 86 310 76 21 346 356 354 6 334 34 41 340 345 315 324 315 16 22 12 24 21 34 49 43 35 37 34 28 26 27 41 38 24 14 16 22 11 9 15 35 41 52 57 70
340 353 343 9 282 51 277 41 72 48 97 118 117 95 215 19 315 322 57 12 313 306 324 5 355 13 24 28 24 24 27 38 38 32 28 32 35 26 31 35 34 33 32 25 13 18 15 12 14 24 44 56 61 48
344 22 31 27 32 291 2 38 29 66 68 24 96 103 67 57 354 60 45 339 295 329 4 7 11 4 18 24 23 16 20 44 45 38 28 28 25 15 27 27 27 29 29 30 28 20 19 14 10 30 59 52 54 61
53 334 46 347 20 355 343 352 39 53 39 18 58 72 49 37 63 58 357 278 301 305 315 350 9 15 34 353 20 31 47 53 59 54 26 26 25 27 21 20 27 24 27 27 23 19 16 25 36 50 58 53 58 55
64 291 84 44 299 15 332 344 1 29 57 71 56 76 57 85 84 166 252 253 268 286 312 329 340 344 19 30 25 27 39 53 56 51 36 37 34 24 5 11 9 7 22 25 31 28 36 39 41 48 47 51 63 61
115 275 255 225 229 334 312 304 12 69 66 71 60 65 79 73 146 248 272 243 229 298 331 339 341 138 118 85 80 71 61 59 67 64 51 47 45 42 36 24 2 359 24 21 36 58 79 73 68 69 65 57 56 62
200 160 192 311 293 181 282 337 57 60 127 148 88 79 136 165 198 228 219 287 316 341 53 97 110 109 106 95 84 65 53 50 47 46 36 38 38 32 23 21 24 37 51 46 60 72 81 87 82 78 75 73 70 65
212 230 116 301 308 310 330 118 155 230 169 121 126 170 193 230 223 228 308 357 2 130 115 110 121 117 102 90 77 68 58 50 51 42 28 5 360 7 17 22 36 52 56 65 65 71 81 85 83 79 76 70 66 64
244 164 152 200 192 195 239 160 170 147 80 107 113 72 33 345 283 311 322 49 145 130 120 125 131 139 126 110 96 76 64 54 51 50 49 8 2 16 24 37 46 48 56 62 68 72 75 77 80 77 69 64 62 58
130 122 124 158 209 219 141 92 69 69 59 76 86 105 169 267 21 82 125 123 147 136 135 128 117 120 137 170 165 144 95 65 56 47 39 32 32 31 36 47 47 47 53 58 61 60 59 57 52 48 43 45 44 45
162 180 164 140 133 120 103 99 94 53 46 66 86 83 85 84 182 249 168 139 127 146 150 150 144 130 96 73 108 134 125 110 71 44 32 35 34 35 37 41 38 36 41 44 42 41 43 42 39 36 37 33 28 24
216 149 130 114 129 180 213 138 129 117 135 153 200 188 196 160 199 183 105 137 132 155 168 163 130 103 82 69 108 146 133 102 60 24 14 20 24 26 24 29 31 34 33 32 33 34 31 30 29 26 19 13 12 17